{"data":{"norad_id":41579,"epoch":"2026-05-25T04:27:21.134592Z","epoch_age_seconds":65732,"freshness":"FRESH","line1":"1 41579U 16034A   26145.18566128  .00000008  00000+0  45007-4 0  9992","line2":"2 41579  99.1884 154.4073 0001108  87.1222 273.0061 13.85908151504440","mean_motion":13.85908151,"eccentricity":0.0001108,"inclination_deg":99.1884,"raan_deg":154.4073,"arg_perigee_deg":87.1222,"mean_anomaly_deg":273.0061,"bstar":4.5007e-5,"rev_number":50444,"period_min":103.90298945576,"perigee_km":942.19457357199,"apogee_km":943.81693880677,"semimajor_km":7321.1427561894,"source":"CELESTRAK","updated_at":"2026-05-25T13:37:55.618546Z"}}